Iron Mountain, MI

2:48 AM CDT on June 25, 2017 (GMT -0500)
Ford

Weather History for KIMT - January, 2014

Change the Weather History Date:

Wednesday, January 8, 2014

  Actual Average Record
Temperature  
Mean Temperature -4 °F -  
Max Temperature 8 °F 19 °F 50 °F (2003)
Min Temperature -18 °F -5 °F -26 °F (1986)
Degree Days  
Heating Degree Days 68    
Moisture  
Dew Point -13 °F    
Average Humidity 69    
Maximum Humidity 86    
Minimum Humidity 53    
Precipitation  
Precipitation 0.00 in - - ()
Sea Level Pressure  
Sea Level Pressure 30.34 in    
Wind  
Wind Speed 6 mph (WNW)    
Max Wind Speed 10 mph    
Max Gust Speed -    
Visibility 10 miles    
Events      
Averages and records for this station are not official NWS values.
T = Trace of Precipitation, MM = Missing Value Source: NWS Daily Summary

Daily Weather History Graph

Daily Weather History Graph

Search for Another Location

Airport or City:

Trip Planner

Search our weather history database for the weather conditions in past years. The results will help you decide how hot, cold, wet, or windy it might be!

Date:

Astronomy

Jan. 08, 2014 Rise Set
Actual Time 7:32 AM CST 4:25 PM CST
Civil Twilight 6:58 AM CST 4:59 PM CST
Nautical Twilight 6:21 AM CST 5:37 PM CST
Astronomical Twilight 5:45 AM CST 6:13 PM CST
Moon 11:28 AM CST (1/8) 12:26 AM CST (1/8)
Length of Visible Light 10h 00m
Length of Day
8h 53m
First Quarter, 56% of the Moon is Illuminated
Jan 8
First Quarter
Jan 15
Full
Jan 23
Last Quarter
Jan 30
New
Feb 6
First Quarter

Hourly Weather History & Observations

Time (CST) Temp. Windchill Dew Point Humidity Pressure Visibility Wind Dir Wind Speed Gust Speed Precip Events Conditions
12:54 AM -7.1 °F -19.9 °F -15.0 °F 68% 30.22 in 10.0 mi West 5.8 mph - N/A   Overcast
1:54 AM -8.0 °F -19.2 °F -15.0 °F 71% 30.24 in 10.0 mi West 4.6 mph - N/A   Overcast
2:54 AM -8.0 °F -26.1 °F -15.0 °F 71% 30.24 in 10.0 mi WNW 10.4 mph - N/A   Overcast
3:54 AM -7.1 °F -22.8 °F -14.1 °F 72% 30.25 in 10.0 mi WNW 8.1 mph - N/A   Overcast
4:10 AM -7.6 °F -23.4 °F -14.8 °F 71% 30.14 in 10.0 mi West 8.1 mph - N/A   Overcast
4:54 AM -6.0 °F -20.1 °F -13.0 °F 72% 30.26 in 10.0 mi West 6.9 mph - N/A   Overcast
5:54 AM -8.0 °F -21.0 °F -13.0 °F 79% 30.27 in 10.0 mi West 5.8 mph - N/A   Overcast
6:10 AM -7.6 °F -20.6 °F -14.8 °F 71% 30.16 in 10.0 mi West 5.8 mph - N/A   Overcast
6:54 AM -9.9 °F -23.4 °F -16.1 °F 74% 30.30 in 10.0 mi West 5.8 mph - N/A   Overcast
7:32 AM -11.2 °F -24.8 °F -18.4 °F 70% 30.19 in 10.0 mi WNW 5.8 mph - N/A   Scattered Clouds
7:54 AM -11.9 °F -21.5 °F -18.0 °F 74% 30.33 in 10.0 mi West 3.5 mph - N/A   Clear
8:54 AM -11.0 °F -22.8 °F -18.0 °F 71% 30.36 in 10.0 mi West 4.6 mph - N/A   Clear
9:54 AM -7.1 °F -19.9 °F -15.0 °F 68% 30.38 in 10.0 mi WNW 5.8 mph - N/A   Clear
10:54 AM -0.9 °F -12.7 °F -11.0 °F 62% 30.36 in 10.0 mi WNW 5.8 mph - N/A   Clear
11:54 AM 3.9 °F -8.2 °F -6.0 °F 64% 30.34 in 10.0 mi WNW 6.9 mph - N/A   Clear
12:54 PM 6.1 °F -5.6 °F -5.1 °F 60% 30.34 in 10.0 mi West 6.9 mph - N/A   Clear
1:54 PM 8.1 °F -0.5 °F -4.0 °F 58% 30.35 in 10.0 mi NW 4.6 mph - N/A   Clear
2:54 PM 8.1 °F -3.2 °F -5.1 °F 55% 30.36 in 10.0 mi West 6.9 mph - N/A   Clear
3:54 PM 7.0 °F -1.7 °F -7.1 °F 53% 30.38 in 10.0 mi West 4.6 mph - N/A   Clear
4:54 PM 3.9 °F -5.3 °F -8.0 °F 58% 30.41 in 10.0 mi West 4.6 mph - N/A   Clear
5:54 PM -0.0 °F -7.9 °F -9.9 °F 63% 30.43 in 10.0 mi WSW 3.5 mph - N/A   Clear
6:54 PM -0.0 °F - -9.9 °F 63% 30.45 in 10.0 mi Calm Calm - N/A   Clear
7:54 PM -6.0 °F - -11.9 °F 75% 30.48 in 10.0 mi Calm Calm - N/A   Clear
8:54 PM -5.1 °F -15.8 °F -11.9 °F 72% 30.49 in 10.0 mi NW 4.6 mph - N/A   Clear
9:54 PM -11.9 °F -21.5 °F -16.1 °F 82% 30.51 in 10.0 mi WNW 3.5 mph - N/A   Clear
10:54 PM -15.0 °F - -20.0 °F 78% 30.52 in 10.0 mi Calm Calm - N/A   Clear
11:54 PM -18.9 °F - -22.0 °F 86% 30.52 in 10.0 mi Calm Calm - N/A   Clear